Regional Weather Roundup
Issued by NWS

Home | Current Version | Previous Version | Graphics & Text | Print | Product List | Glossary On
Versions: 1 2 3 4 5 6 7 8 9 10 11 12 13 14 15 16 17 18 19 20 21 22 23 24 25 26 27
000
ASUS45 KSLC 290110
RWRUT

UTAH REGIONAL WEATHER ROUNDUP
NATIONAL WEATHER SERVICE SALT LAKE CITY UT
700 PM MDT THU APR 28 2016

UTZ001>011-023>025-290200-

NORTHERN UTAH

CITY           SKY/WX    TMP DP  RH WIND       PRES   REMARKS
BRIGHAM CITY   MOSUNNY   55  27  33 E23G37    29.79R
HILL AFB       PTSUNNY   49  33  54 E24       29.78S
LOGAN          MOSUNNY   53  30  41 E23G33    29.80S
OGDEN          PTSUNNY   53  30  41 NE25G31   29.77S
PROVO AIRPORT  PTSUNNY   54  34  47 NW9       29.75R
SALT LAKE CITY CLOUDY    53  33  46 E12       29.77R
VERNAL         CLOUDY    44  37  76 E10       29.83F
WENDOVER       PTSUNNY   55  41  58 E8        29.80R
HEBER CITY     CLOUDY    43  32  65 N17       29.79S

$$

UTZ012>022-026-027-290200-

SOUTHERN/CENTRAL UTAH

CITY           SKY/WX    TMP DP  RH WIND       PRES   REMARKS
BLANDING       PTSUNNY   47  26  44 S12       29.84R
BRYCE CANYON   LGT SNOW  35  32  88 CALM      29.79R FOG
CEDAR CITY     CLOUDY    44  39  82 W7        29.75R
DELTA          CLOUDY    43  41  93 N9        29.79R
MILFORD        HVY RAIN  43  40  89 NE12      29.78R FOG
MOAB/CYNLANDS  CLOUDY    48  37  65 W7        29.76S
PRICE          PTSUNNY   46  37  71 NW6       29.78R
ST GEORGE      CLOUDY    63  37  39 W16       29.73R
KANAB          CLOUDY    48  39  71 SW7       29.80R

$$

REGIONAL REPORTS     COLORADO/ARIZONA

CITY           SKY/WX    TMP DP  RH WIND       PRES   REMARKS
CRAIG, CO      CLOUDY    40  35  83 CALM      29.89R
GRAND JUNCTION CLOUDY    51  38  60 W7        29.78R
RIFLE          CLOUDY    51  35  54 NW5       29.80R
MONTROSE       CLOUDY    50  37  61 N12       29.80R
CORTEZ         CLOUDY    46  37  71 E12       29.80F
PAGE, AZ       MOSUNNY   55  35  47 NW3       29.72R
GRAND CANYON   CLOUDY    39  36  89 S8        29.82R WCI  33
KINGMAN        PTSUNNY   54  46  74 E5        29.78S
FLAGSTAFF      PTSUNNY   39  30  70 W10       29.83R WCI  32

$$

REGIONAL REPORTS    NEVADA/IDAHO/WYOMING

CITY           SKY/WX    TMP DP  RH WIND       PRES   REMARKS
LAS VEGAS, NV  TSTM      56  50  80 NE12      29.70R
ELY            CLOUDY    47  34  60 N22       29.83R
ELKO           CLOUDY    56  30  37 N6        29.84R
POCATELLO, ID  PTSUNNY   57  29  34 N10       29.81R
BURLEY         MOSUNNY   58  34  40 W7        29.80R
EVANSTON, WY   CLOUDY    34  27  75 E16       29.89R WCI  24
ROCK SPRINGS   CLOUDY    33  27  78 NE24G32   29.92R WCI  20
KEMMERER         N/A     32  28  86 E20       29.92S WCI  20

$$




USA.gov is the U.S. government's official web portal to all federal, state and local government web resources and services.